Weather in Teofipol

Ukraine / Khmelnitsky District     49°50′29″N   26°24′42″E
temp.,
°C
wind,
m/s
gust,
m/s
humid.,
%
clouds,
%
prec.,
mm/h
press.,
hPa
HPBL,
m
17 august, wed
wed1700:00+17e36955 0.1 1008124
03:00+16ene359955 0.1 1008149
06:00+17e3592100 0.0 1008355
09:00+18ne3488100 0.0 1010491
12:00+20nne3478100 0.0 1010712
15:00+23n456999 1.5 10101174
18:00+22n4679100 2.9 1010549
21:00+19nnw34905 3.7 101156
18 august, thu
thu1800:00+18nw349125 0.0 101151
03:00+16nw389712 0.1 1011178
06:00+16nnw35965 0.0 101193
09:00+20nne35791 0.0 1012291
12:00+25nne34560 0.0 1012987
15:00+28nne45450 0.0 10111681
18:00+28nne45440 0.0 10121621
21:00+22nne33600 0.0 101226
19 august, fri
fri1900:00+20nne22650 0.0 101314
03:00+18ne22700 0.0 101316
06:00+17ne22730 0.0 101318
09:00+22ne35590 0.0 1014258
12:00+27ne44435 0.0 10131120
15:00+29ne44411 0.0 10131547
18:00+28ene34425 0.0 10121832
21:00+22ene48623 0.0 1013133
20 august, sat
sat2000:00+20e36702 0.0 1013103
03:00+19ese35752 0.0 101477
06:00+18ese36845 0.0 101393
09:00+23e46682 0.0 1013332
12:00+28ese45495 0.0 10131369
15:00+30ese44393 0.0 10121999
18:00+30e33395 0.0 10112076
21:00+24ese485757 0.0 1011125
21 august, sun
sun2100:00+22ese5136194 0.0 1011317
03:00+21ese496445 0.0 1011207
06:00+19ese227090 0.0 101128
09:00+24se345529 0.0 1011349
12:00+29sse344249 0.0 10111147
15:00+32s333554 0.0 10092824
18:00+26ene7105528 0.1 1010547
21:00+24ese366166 0.2 1011128